BAW2VR EGKK-CYVR

Flight info

Callsign BAW2VR
Flight time N/A
Altitude 36000
Route SAM N19 ADKIK DCT MOPAT DCT PIKIL/M083F360 NATA URTAK/N0491F360 DCT LOPVI DCT N5970 DCT 6080N DCT 5990N DCT YYQ DCT 58N00 DCT RIDOK Q856 YMM J527 YZU DCT ROMRA DCT KEBRA DCT MERYT DCT BOOTH LIONN4
Aircraft B772/H-SDE2E3FGHIJ5LORVWXY/LB1D1

Departure

Time 2026-05-06 11:34
Airport London Gatwick Airport (EGKK)

Arrival

Time N/A
Airport Vancouver International Airport (CYVR)
Time Latitude Longitude Altitude Speed Heading
2026-05-06 11:03 51.15558 -0.17102 209 ft 0 kts 167°
2026-05-06 11:12 51.15560 -0.17102 209 ft 2 kts 166°
2026-05-06 11:13 51.15576 -0.17109 220 ft 2 kts 167°
2026-05-06 11:13 51.15587 -0.17113 219 ft 2 kts 167°
2026-05-06 11:13 51.15609 -0.17115 220 ft 2 kts 196°
2026-05-06 11:13 51.15624 -0.17105 224 ft 2 kts 214°
2026-05-06 11:14 51.15633 -0.17094 224 ft 2 kts 231°
2026-05-06 11:14 51.15641 -0.17062 213 ft 2 kts 256°
2026-05-06 11:14 51.15643 -0.17048 214 ft 1 kts 258°
2026-05-06 11:14 51.15643 -0.17046 214 ft 0 kts 258°
2026-05-06 11:17 51.15637 -0.17094 217 ft 9 kts 258°
2026-05-06 11:18 51.15624 -0.17187 215 ft 9 kts 256°
2026-05-06 11:18 51.15609 -0.17280 215 ft 9 kts 256°
2026-05-06 11:18 51.15595 -0.17371 215 ft 9 kts 256°
2026-05-06 11:18 51.15560 -0.17440 215 ft 9 kts 194°
2026-05-06 11:19 51.15500 -0.17426 216 ft 9 kts 167°
2026-05-06 11:19 51.15441 -0.17405 213 ft 9 kts 169°
2026-05-06 11:19 51.15381 -0.17387 215 ft 9 kts 167°
2026-05-06 11:19 51.15326 -0.17377 217 ft 6 kts 195°
2026-05-06 11:20 51.15304 -0.17434 219 ft 6 kts 253°
2026-05-06 11:20 51.15294 -0.17503 215 ft 6 kts 257°
2026-05-06 11:20 51.15284 -0.17572 216 ft 6 kts 257°
2026-05-06 11:20 51.15275 -0.17641 217 ft 7 kts 259°
2026-05-06 11:21 51.15259 -0.17761 218 ft 12 kts 258°
2026-05-06 11:21 51.15252 -0.17813 211 ft 5 kts 258°
2026-05-06 11:21 51.15244 -0.17874 220 ft 10 kts 258°
2026-05-06 11:21 51.15223 -0.18023 215 ft 14 kts 257°
2026-05-06 11:22 51.15201 -0.18178 222 ft 14 kts 257°
2026-05-06 11:22 51.15186 -0.18333 219 ft 14 kts 262°
2026-05-06 11:22 51.15165 -0.18489 215 ft 14 kts 258°
2026-05-06 11:22 51.15144 -0.18644 217 ft 14 kts 258°
2026-05-06 11:23 51.15123 -0.18799 212 ft 14 kts 258°
2026-05-06 11:23 51.15102 -0.18953 214 ft 14 kts 257°
2026-05-06 11:23 51.15080 -0.19108 215 ft 14 kts 257°
2026-05-06 11:23 51.15059 -0.19264 212 ft 14 kts 257°
2026-05-06 11:24 51.15037 -0.19418 217 ft 14 kts 257°
2026-05-06 11:24 51.15015 -0.19572 218 ft 14 kts 257°
2026-05-06 11:24 51.14993 -0.19727 213 ft 14 kts 257°
2026-05-06 11:24 51.14972 -0.19882 218 ft 14 kts 257°
2026-05-06 11:25 51.14951 -0.20037 216 ft 14 kts 257°
2026-05-06 11:25 51.14930 -0.20190 215 ft 14 kts 258°
2026-05-06 11:25 51.14908 -0.20346 217 ft 14 kts 258°
2026-05-06 11:25 51.14887 -0.20501 219 ft 14 kts 258°
2026-05-06 11:26 51.14867 -0.20655 212 ft 14 kts 258°
2026-05-06 11:26 51.14845 -0.20810 209 ft 14 kts 257°
2026-05-06 11:26 51.14823 -0.20964 218 ft 14 kts 257°
2026-05-06 11:26 51.14800 -0.21119 217 ft 14 kts 253°
2026-05-06 11:27 51.14772 -0.21272 209 ft 14 kts 257°
2026-05-06 11:27 51.14745 -0.21380 218 ft 10 kts 221°
2026-05-06 11:27 51.14684 -0.21383 217 ft 7 kts 152°
2026-05-06 11:27 51.14643 -0.21343 219 ft 7 kts 159°
2026-05-06 11:28 51.14628 -0.21337 216 ft 0 kts 166°
2026-05-06 11:31 51.14617 -0.21332 215 ft 5 kts 166°
2026-05-06 11:31 51.14563 -0.21300 215 ft 10 kts 147°
2026-05-06 11:31 51.14522 -0.21226 219 ft 7 kts 111°
2026-05-06 11:31 51.14521 -0.21172 215 ft 3 kts 83°
2026-05-06 11:32 51.14522 -0.21165 214 ft 0 kts 79°
2026-05-06 11:32 51.14522 -0.21164 214 ft 1 kts 79°
2026-05-06 11:33 51.14549 -0.20960 217 ft 45 kts 77°
2026-05-06 11:33 51.14669 -0.20102 220 ft 113 kts 78°
2026-05-06 11:33 51.14881 -0.18574 213 ft 169 kts 78°
2026-05-06 11:33 51.15131 -0.16624 679 ft 178 kts 76°
2026-05-06 11:34 51.15339 -0.14708 1576 ft 176 kts 76°
2026-05-06 11:34 51.15588 -0.12705 1991 ft 196 kts 74°
2026-05-06 11:34 51.15900 -0.10447 2167 ft 221 kts 75°
2026-05-06 11:34 51.16347 -0.08039 2385 ft 236 kts 57°
2026-05-06 11:35 51.17536 -0.06262 2886 ft 238 kts 23°
2026-05-06 11:35 51.19156 -0.05846 3540 ft 241 kts 353°
2026-05-06 11:35 51.20809 -0.06318 3914 ft 241 kts 352°
2026-05-06 11:35 51.22395 -0.07186 3974 ft 249 kts 324°
2026-05-06 11:36 51.23385 -0.09384 3993 ft 249 kts 288°
2026-05-06 11:36 51.23322 -0.12207 4019 ft 265 kts 250°
2026-05-06 11:36 51.22415 -0.14696 3992 ft 258 kts 244°
2026-05-06 11:36 51.21813 -0.17419 4018 ft 264 kts 259°
2026-05-06 11:37 51.21398 -0.20251 4024 ft 258 kts 259°
2026-05-06 11:37 51.20998 -0.23093 4327 ft 265 kts 261°
2026-05-06 11:37 51.20629 -0.25957 4984 ft 267 kts 261°
2026-05-06 11:37 51.20268 -0.28864 5607 ft 270 kts 262°
2026-05-06 11:38 51.19905 -0.31827 6309 ft 271 kts 262°
2026-05-06 11:38 51.19548 -0.34773 6941 ft 271 kts 262°
2026-05-06 11:38 51.19192 -0.37745 7517 ft 274 kts 262°
2026-05-06 11:38 51.18833 -0.40759 8081 ft 277 kts 261°
2026-05-06 11:39 51.18473 -0.43765 8619 ft 280 kts 262°
2026-05-06 11:39 51.18106 -0.46833 9153 ft 283 kts 261°
2026-05-06 11:39 51.17732 -0.49929 9702 ft 286 kts 261°
2026-05-06 11:39 51.17334 -0.53005 10150 ft 289 kts 257°
2026-05-06 11:40 51.16654 -0.56128 10315 ft 306 kts 249°
2026-05-06 11:40 51.15801 -0.59306 10430 ft 323 kts 248°
2026-05-06 11:40 51.14860 -0.62684 10577 ft 342 kts 248°
2026-05-06 11:40 51.13873 -0.66241 10835 ft 358 kts 248°
2026-05-06 11:41 51.12863 -0.69926 11363 ft 367 kts 248°
2026-05-06 11:41 51.11848 -0.73673 12044 ft 372 kts 248°
2026-05-06 11:41 51.10826 -0.77481 12895 ft 374 kts 248°
2026-05-06 11:41 51.09815 -0.81261 13713 ft 377 kts 248°
2026-05-06 11:42 51.08778 -0.85144 14394 ft 381 kts 248°
2026-05-06 11:42 51.07738 -0.89043 15090 ft 384 kts 248°
2026-05-06 11:42 51.06688 -0.92971 15802 ft 386 kts 248°
2026-05-06 11:42 51.05645 -0.96874 16462 ft 390 kts 248°
2026-05-06 11:43 51.04577 -1.00866 17126 ft 393 kts 248°
2026-05-06 11:43 51.03503 -1.04873 17762 ft 396 kts 248°
2026-05-06 11:43 51.02417 -1.08914 18378 ft 399 kts 247°
2026-05-06 11:44 51.00216 -1.17084 19484 ft 403 kts 247°
2026-05-06 11:44 50.99122 -1.21136 20003 ft 406 kts 247°
2026-05-06 11:44 50.97999 -1.25288 20505 ft 409 kts 247°
2026-05-06 11:44 50.96869 -1.29459 21039 ft 411 kts 247°
2026-05-06 11:45 50.95749 -1.33588 21511 ft 414 kts 248°
2026-05-06 11:45 50.94850 -1.37944 21944 ft 416 kts 257°
2026-05-06 11:45 50.94282 -1.42460 22526 ft 416 kts 259°
2026-05-06 11:45 50.93770 -1.47020 22916 ft 422 kts 259°
2026-05-06 11:46 50.93255 -1.51565 23439 ft 423 kts 259°
2026-05-06 11:46 50.92709 -1.56170 23820 ft 427 kts 259°
2026-05-06 11:46 50.92133 -1.60822 24250 ft 428 kts 258°
2026-05-06 11:46 50.91541 -1.65474 24573 ft 433 kts 258°
2026-05-06 11:47 50.90943 -1.70101 25027 ft 433 kts 258°
2026-05-06 11:47 50.90330 -1.74798 25349 ft 438 kts 258°
2026-05-06 11:47 50.89710 -1.79539 25789 ft 439 kts 258°
2026-05-06 11:47 50.89086 -1.84305 26137 ft 442 kts 258°
2026-05-06 11:48 50.88465 -1.89042 26502 ft 444 kts 258°
2026-05-06 11:48 50.87833 -1.93852 26913 ft 446 kts 258°
2026-05-06 11:48 50.87194 -1.98687 27245 ft 449 kts 258°
2026-05-06 11:48 50.86559 -2.03491 27601 ft 452 kts 258°
2026-05-06 11:49 50.85914 -2.08364 27966 ft 453 kts 258°
2026-05-06 11:49 50.85263 -2.13274 28292 ft 457 kts 258°
2026-05-06 11:49 50.84606 -2.18214 28608 ft 459 kts 258°
2026-05-06 11:49 50.83945 -2.23166 28995 ft 461 kts 258°
2026-05-06 11:50 50.83286 -2.28094 29263 ft 464 kts 258°
2026-05-06 11:50 50.82615 -2.33091 29642 ft 465 kts 258°
2026-05-06 11:50 50.81939 -2.38117 29887 ft 468 kts 258°
2026-05-06 11:50 50.81256 -2.43170 30169 ft 469 kts 258°
2026-05-06 11:51 50.80603 -2.48258 30414 ft 471 kts 261°
2026-05-06 11:51 50.80360 -2.53387 30643 ft 473 kts 270°
2026-05-06 11:51 50.80561 -2.58601 30970 ft 472 kts 276°
2026-05-06 11:51 50.81158 -2.63700 31331 ft 470 kts 284°
2026-05-06 11:52 50.82016 -2.68621 31643 ft 470 kts 285°
2026-05-06 11:52 50.82915 -2.73587 31960 ft 469 kts 285°
2026-05-06 11:52 50.83818 -2.78551 32341 ft 467 kts 285°
2026-05-06 11:52 50.84707 -2.83487 32695 ft 466 kts 285°
2026-05-06 11:53 50.85586 -2.88439 32975 ft 466 kts 285°
2026-05-06 11:53 50.86441 -2.93321 33316 ft 465 kts 285°
2026-05-06 11:53 50.87296 -2.98255 33670 ft 464 kts 284°
2026-05-06 11:53 50.88145 -3.03190 34023 ft 462 kts 284°
2026-05-06 11:54 50.88990 -3.08124 34243 ft 463 kts 284°
2026-05-06 11:54 50.89823 -3.13007 34442 ft 464 kts 284°
2026-05-06 11:54 50.90665 -3.17956 34660 ft 464 kts 284°
2026-05-06 11:54 50.91506 -3.22915 34869 ft 465 kts 284°
2026-05-06 11:55 50.92347 -3.27881 35080 ft 465 kts 284°
2026-05-06 11:55 50.93182 -3.32829 35311 ft 465 kts 284°
2026-05-06 11:55 50.94005 -3.37715 35537 ft 465 kts 284°
2026-05-06 11:55 50.94839 -3.42680 35742 ft 465 kts 284°
2026-05-06 11:56 50.95673 -3.47657 35915 ft 466 kts 284°
2026-05-06 11:56 50.96507 -3.52653 35965 ft 469 kts 284°
2026-05-06 11:56 50.98165 -3.62626 36011 ft 471 kts 284°
2026-05-06 11:57 50.99818 -3.72624 36002 ft 463 kts 284°
2026-05-06 11:57 51.01436 -3.82466 36019 ft 462 kts 284°
2026-05-06 11:58 51.03046 -3.92321 36012 ft 462 kts 284°
2026-05-06 11:58 51.04652 -4.02212 36018 ft 462 kts 284°
2026-05-06 11:59 51.06245 -4.12076 36009 ft 462 kts 284°
2026-05-06 11:59 51.07835 -4.21984 36017 ft 462 kts 284°
2026-05-06 12:00 51.09410 -4.31857 36015 ft 462 kts 283°
2026-05-06 12:00 51.10985 -4.41788 36014 ft 462 kts 283°
2026-05-06 12:01 51.12551 -4.51721 36016 ft 462 kts 283°
2026-05-06 12:01 51.14098 -4.61597 36017 ft 461 kts 283°
2026-05-06 12:02 51.15639 -4.71487 36014 ft 461 kts 283°
2026-05-06 12:02 51.17178 -4.81432 36019 ft 461 kts 283°
2026-05-06 12:03 51.18699 -4.91315 36024 ft 460 kts 283°
2026-05-06 12:03 51.20210 -5.01201 36024 ft 460 kts 283°
2026-05-06 12:04 51.21721 -5.11145 36027 ft 459 kts 283°
2026-05-06 12:04 51.23210 -5.21004 36033 ft 459 kts 283°
2026-05-06 12:05 51.24704 -5.30954 36028 ft 460 kts 283°
2026-05-06 12:05 51.26177 -5.40834 36033 ft 460 kts 283°
2026-05-06 12:06 51.27645 -5.50738 36033 ft 460 kts 283°
2026-05-06 12:06 51.29114 -5.60716 36033 ft 460 kts 283°
2026-05-06 12:07 51.30566 -5.70636 36036 ft 461 kts 283°
2026-05-06 12:07 51.32019 -5.80632 36034 ft 461 kts 283°
2026-05-06 12:08 51.33463 -5.90632 36038 ft 461 kts 283°
2026-05-06 12:08 51.34890 -6.00573 36042 ft 461 kts 282°
2026-05-06 12:09 51.36318 -6.10593 36042 ft 461 kts 282°
2026-05-06 12:09 51.37740 -6.20636 36044 ft 461 kts 282°
2026-05-06 12:10 51.39146 -6.30630 36045 ft 461 kts 282°
2026-05-06 12:10 51.40542 -6.40617 36045 ft 461 kts 282°
2026-05-06 12:11 51.41937 -6.50671 36042 ft 461 kts 282°
2026-05-06 12:11 51.43315 -6.60669 36046 ft 461 kts 282°
2026-05-06 12:12 51.44461 -6.69032 36049 ft 461 kts 282°
2026-05-06 12:12 51.46052 -6.80721 36048 ft 461 kts 282°
2026-05-06 12:13 51.47181 -6.89079 36049 ft 460 kts 282°
2026-05-06 12:13 51.48528 -6.99094 36047 ft 460 kts 282°
2026-05-06 12:14 51.49687 -7.05632 36043 ft 459 kts 293°
2026-05-06 12:14 51.50647 -7.08729 36047 ft 459 kts 299°
2026-05-06 12:14 51.54574 -7.16765 36049 ft 461 kts 315°
2026-05-06 12:15 51.59304 -7.23772 36049 ft 462 kts 316°
2026-05-06 12:15 51.64035 -7.30726 36048 ft 463 kts 316°
2026-05-06 12:16 51.68766 -7.37794 36045 ft 464 kts 315°
2026-05-06 12:16 51.73479 -7.44923 36042 ft 464 kts 315°
2026-05-06 12:17 51.78155 -7.52035 36035 ft 464 kts 315°
2026-05-06 12:17 51.82871 -7.59228 36033 ft 464 kts 315°
2026-05-06 12:18 51.87536 -7.66363 36028 ft 463 kts 315°
2026-05-06 12:18 51.92215 -7.73539 36026 ft 462 kts 315°
2026-05-06 12:19 51.96886 -7.80725 36029 ft 462 kts 315°
2026-05-06 12:19 52.01533 -7.87894 36021 ft 462 kts 315°
2026-05-06 12:20 52.06160 -7.95055 36022 ft 461 kts 315°
2026-05-06 12:20 52.10818 -8.02286 36018 ft 462 kts 315°
2026-05-06 12:21 52.15463 -8.09518 36021 ft 462 kts 315°
2026-05-06 12:21 52.20086 -8.16739 36018 ft 462 kts 315°
2026-05-06 12:22 52.24734 -8.24019 36021 ft 462 kts 315°
2026-05-06 12:22 52.29357 -8.31283 36016 ft 462 kts 315°
2026-05-06 12:23 52.33970 -8.38555 36021 ft 462 kts 315°
2026-05-06 12:23 52.38605 -8.45883 36023 ft 462 kts 315°
2026-05-06 12:24 52.43236 -8.53225 36015 ft 462 kts 316°
2026-05-06 12:24 52.47831 -8.60535 36018 ft 462 kts 316°
2026-05-06 12:25 52.52434 -8.67880 36020 ft 462 kts 316°
2026-05-06 12:25 52.57040 -8.75252 36020 ft 462 kts 316°
2026-05-06 12:26 52.61618 -8.82601 36020 ft 461 kts 316°
2026-05-06 12:26 52.66216 -8.90006 36026 ft 461 kts 316°
2026-05-06 12:27 52.70801 -8.97414 36022 ft 461 kts 316°
2026-05-06 12:27 52.75352 -9.04789 36024 ft 461 kts 316°
2026-05-06 12:28 52.79934 -9.12237 36025 ft 460 kts 316°
2026-05-06 12:28 52.84477 -9.19643 36023 ft 460 kts 316°
2026-05-06 12:29 52.89009 -9.27057 36027 ft 460 kts 316°
2026-05-06 12:29 52.93570 -9.34540 36033 ft 460 kts 316°
2026-05-06 12:30 52.98094 -9.41987 36030 ft 459 kts 316°
2026-05-06 12:30 53.02603 -9.49431 36030 ft 458 kts 316°
2026-05-06 12:31 53.07125 -9.56921 36036 ft 458 kts 316°
2026-05-06 12:31 53.11614 -9.64379 36030 ft 457 kts 316°
2026-05-06 12:32 53.16108 -9.71868 36032 ft 456 kts 316°
2026-05-06 12:32 53.20573 -9.79334 36035 ft 455 kts 316°
2026-05-06 12:33 53.25036 -9.86819 36038 ft 454 kts 316°
2026-05-06 12:33 53.29484 -9.94303 36041 ft 453 kts 316°
2026-05-06 12:34 53.33909 -10.01770 36043 ft 452 kts 316°